Temp_Advection
nan nan nan nan nan nan nan nan nan nan nan nan nan nan nan nan nan nan nan nan nan nan nan nan nan nan nan nan nan nan nan nan nan nan nan nan nan nan nan nan nan nan nan nan nan
nan -0 -0 -0 -1 -0 -0 0 1 1 1 1 1 -0 -2 -2 -2 -1 0 -0 -0 0 -0 -0 -0 -0 -0 -0 -0 -0 -0 -2 -0 -0 -0 -0 -0 -1 -0 -0 -1 -1 0 1 nan
nan -0 0 0 0 -0 -0 -0 0 1 1 1 2 1 -1 -1 -2 -0 0 -0 0 -0 -0 -0 0 0 -0 -0 -0 -0 -1 -1 -0 -0 -0 -0 -1 -0 0 -0 -1 -1 1 1 nan
nan -0 -0 -0 -0 0 -0 0 0 0 1 1 2 1 0 -1 -1 -0 0 0 0 -0 0 -0 0 0 -0 -1 -0 -0 -1 -0 -0 -0 0 -0 -0 -0 -0 -1 -1 -0 -0 1 nan
nan -0 -0 -0 -0 0 -0 -0 -0 0 0 1 2 1 1 -0 -4 -0 1 0 0 -0 -0 0 0 0 -0 -0 -0 -0 -0 -0 -1 -0 -0 0 0 -0 -1 -1 -1 -0 0 1 nan
nan -0 -0 0 -0 -0 0 -0 -0 -0 0 1 2 2 1 -1 -3 -0 0 0 0 0 0 0 0 0 -0 -0 -1 -0 -0 -0 0 -0 -0 -0 -0 -1 -1 -1 -1 -1 0 0 nan
nan -0 -1 -0 -0 -1 -0 -0 -0 -0 -0 1 2 2 -0 -4 -0 0 0 0 -0 0 -0 -0 0 -0 -0 -0 -0 0 -0 -1 -1 -1 -0 0 0 -1 -2 -1 -1 -1 0 -0 nan
nan -0 -0 -1 -1 -1 -1 -0 -0 -1 -0 1 2 2 -0 -2 -1 -0 0 0 -0 -0 -0 -0 -0 0 -0 -0 -1 -0 0 -0 -1 -1 -0 0 -1 -2 -1 -0 -1 -1 -0 -0 nan
nan -0 0 -0 -0 -1 -1 -1 -1 -0 -0 2 2 0 -0 -1 -0 -0 0 -0 -0 -0 -0 -0 0 0 0 0 -0 -0 -0 -1 -1 -1 0 0 -1 -1 -1 -0 -0 -0 -0 -0 nan
nan 0 0 -0 -0 0 -1 -0 -0 0 1 0 0 -0 -1 -0 -0 -0 0 -0 -0 -0 -0 -0 0 0 0 0 -0 -0 -0 -0 -0 -0 0 0 -0 -1 -0 -0 -0 -0 -0 -0 nan
nan 1 0 0 -1 -0 0 -0 0 0 0 0 0 -0 -0 0 -0 -0 -0 -0 -0 0 0 -0 0 -0 -1 -0 -0 -0 -0 0 -1 -1 -0 1 -1 -2 -0 0 -0 -1 -0 -0 nan
nan 1 0 -0 -0 -0 0 0 0 0 0 -0 1 -0 -1 1 -0 -1 -0 -0 0 0 0 0 -0 -1 -0 0 0 0 0 -1 -1 -0 0 -0 -1 -1 -0 -0 -1 -0 -1 -1 nan
nan 1 1 0 -0 -0 -0 0 1 0 0 -0 -0 -0 -0 0 -0 -0 -0 -0 -0 0 0 0 -1 -0 0 0 0 0 -0 -0 -1 -1 -0 0 -0 -1 -1 -1 -1 -1 -1 -1 nan
nan 1 1 0 0 -0 -0 -0 0 -0 -0 -0 -0 0 -0 -0 -0 -0 -0 -0 0 0 -0 -0 -0 -0 0 -0 0 -0 -1 0 0 -0 -0 0 -0 -1 -0 -0 -0 -0 -1 -1 nan
nan -1 -0 -0 0 0 0 -0 0 -0 -0 -0 0 0 -0 -0 -0 -0 0 -0 0 -0 -0 0 -0 -0 -0 -0 -0 -0 -0 -0 -0 -0 0 0 -0 -0 0 -0 -0 -0 -1 -1 nan
nan -1 -0 -0 0 0 -0 0 0 -0 -0 -0 -0 0 -0 -0 -0 -0 0 0 0 0 0 -0 -0 0 -0 -0 0 0 -0 -0 0 0 0 -1 -0 -0 -1 -1 -0 -0 -1 -1 nan
nan -0 0 -0 -0 -0 0 0 -0 0 -0 -0 -0 -0 -0 -0 -0 -0 -0 0 0 -0 -0 -0 -0 -0 0 0 -0 -0 -0 -0 -0 0 -1 -0 0 -1 -1 -1 -0 -1 -1 -1 nan
nan -1 -0 -1 -0 0 0 -0 0 -0 0 -0 -0 -0 -0 -0 -0 -0 -0 -0 -0 0 -0 0 -0 0 -0 -0 0 0 -0 -0 0 -0 -0 -1 -0 -1 -1 -1 0 -0 -1 -1 nan
nan -0 -1 -0 0 0 -0 -0 -0 -0 0 0 -0 -0 -0 -0 0 -0 -0 -0 -0 -0 -0 0 -1 -0 0 -0 -0 0 -0 -0 0 0 -0 -0 -2 -2 -1 0 0 -0 0 -1 nan
nan -0 -0 0 0 -0 -0 -0 -0 -0 0 0 0 0 -0 -0 -0 -0 -0 -0 0 -0 -0 0 -0 -0 -0 -0 -0 -0 0 -0 0 -0 -0 -0 -1 -1 -1 -0 -0 -0 -0 -1 nan
nan 0 0 0 0 0 -0 -0 -0 0 0 0 0 -0 0 0 0 -0 -0 -0 -0 -0 -0 -0 0 -1 -0 -0 -0 -0 -0 -0 -0 -0 0 -0 -1 -0 -0 -0 -0 -0 -0 -1 nan
nan 0 0 0 0 0 -0 -0 -0 0 0 0 0 -0 -0 0 0 -0 -0 -0 0 -0 0 -0 0 -0 -0 -1 0 0 0 0 0 -0 -0 -0 -2 0 -0 -1 -1 -1 -0 -1 nan
nan 0 0 0 0 0 -0 -0 0 0 -0 -0 -0 -0 0 0 0 -0 -0 -0 0 -0 -0 -0 0 -0 -1 -1 -1 -0 -0 0 0 -0 -1 -1 -0 -1 -0 -1 -1 -1 -1 -1 nan
nan 0 -0 0 -0 -0 -0 0 -0 -0 0 0 0 0 0 -0 0 0 -0 -0 0 -0 -0 -0 -0 -0 0 0 0 -1 -1 -0 0 -0 -0 -0 -1 -2 -1 -1 -1 -3 -2 -1 nan
nan 0 0 -0 -0 -0 0 -0 -0 0 0 0 0 0 0 0 -0 -0 -0 -0 -0 0 0 0 0 -0 -0 -0 -0 -0 -0 -0 -0 -0 -0 -1 -1 -0 -1 -1 -0 -1 -3 -2 nan
nan 0 0 0 0 -0 0 -0 -0 -0 0 -0 -0 -0 0 -0 -0 -0 -0 0 0 -0 0 -0 -0 -0 -0 -0 -0 -0 -0 0 -0 -0 -0 -0 0 -1 -1 -1 -1 -1 -2 -3 nan
nan nan nan nan nan nan nan nan nan nan nan nan nan nan nan nan nan nan nan nan nan nan nan nan nan nan nan nan nan nan nan nan nan nan nan nan nan nan nan nan nan nan nan nan nan
Wind_Speed
29 30 31 30 30 29 29 32 33 33 34 33 32 31 31 34 37 38 42 22 10 9 13 17 18 20 15 13 21 18 7 19 25 18 14 14 4 14 10 16 22 10 11 12 35
31 31 32 32 31 30 32 34 35 35 37 36 34 25 30 31 37 46 11 2 9 9 12 14 18 17 10 12 12 9 13 29 5 19 5 17 19 28 6 13 19 11 9 13 41
31 31 32 33 34 33 32 33 34 34 35 40 34 23 24 30 35 5 5 5 6 6 9 12 16 17 15 19 13 13 25 23 15 30 21 16 19 19 4 12 20 17 15 28 47
34 32 32 33 34 34 34 33 32 32 32 39 33 25 22 19 9 6 10 8 14 12 11 7 8 9 6 15 25 14 23 26 22 17 20 14 25 23 12 15 24 23 19 32 50
35 35 35 34 36 35 35 34 34 34 32 30 34 28 17 8 34 28 21 26 25 13 11 10 9 11 8 11 20 22 23 20 22 32 30 26 21 19 23 25 31 28 20 35 50
36 37 37 35 38 38 37 36 37 38 35 28 37 27 12 8 26 10 16 16 14 14 14 11 7 8 10 7 14 10 16 20 26 26 27 25 25 21 34 30 32 24 17 32 44
38 37 36 34 44 39 33 38 37 33 33 32 33 26 17 42 23 32 31 31 28 24 22 19 17 10 7 5 13 16 18 18 18 15 19 21 16 22 32 32 28 25 18 30 39
39 40 42 39 38 36 39 34 35 35 33 22 28 21 12 31 31 26 12 15 10 15 24 19 18 20 11 10 10 7 10 17 23 19 12 8 21 22 26 29 26 32 20 23 35
36 35 35 33 31 31 29 31 30 25 20 25 20 10 13 13 9 7 7 7 10 9 8 13 15 10 4 5 5 8 9 10 13 17 10 16 25 21 21 24 27 28 25 23 25
35 32 31 28 28 28 30 27 27 18 15 11 3 4 15 9 4 1 5 3 6 9 8 6 7 4 5 5 12 9 10 11 14 3 14 17 26 17 14 20 26 28 30 25 26
34 33 29 25 28 26 27 19 8 5 10 9 9 4 7 4 7 9 11 17 15 10 4 6 3 9 13 14 12 13 17 14 14 14 12 16 21 19 14 21 16 26 30 28 28
37 35 27 24 25 25 17 7 11 10 6 10 21 15 22 18 12 25 13 11 7 11 4 3 11 10 9 11 12 14 17 26 17 16 14 17 20 18 11 10 25 26 25 32 32
39 36 24 22 23 18 13 11 16 11 3 7 5 8 12 6 7 10 4 6 5 4 6 5 8 1 8 10 14 16 16 15 17 18 15 17 24 20 16 17 21 24 34 34 39
39 33 19 23 12 12 8 10 6 6 1 0 2 3 2 4 5 6 6 4 2 4 4 6 6 4 5 5 8 8 8 10 13 9 4 4 14 8 7 15 13 17 23 33 38
31 23 16 9 12 7 12 4 3 1 4 2 1 1 2 5 10 1 10 6 4 5 1 6 7 10 7 5 4 6 5 11 12 9 9 16 8 5 6 12 13 14 21 28 36
32 25 15 12 8 10 5 7 0 5 3 4 3 3 5 9 7 8 4 11 6 5 4 8 4 4 7 7 5 11 8 9 5 5 7 14 11 7 12 21 14 10 21 26 31
28 24 14 11 7 4 7 2 5 4 2 2 2 5 7 5 3 3 4 1 3 3 3 4 4 3 2 1 4 4 5 3 4 2 11 9 10 19 8 15 21 19 24 26 26
28 25 13 9 10 10 1 4 5 4 3 1 3 7 5 4 2 3 2 3 4 3 1 2 5 4 2 4 4 4 6 3 5 2 5 10 8 13 16 24 30 19 26 29 29
24 14 7 11 11 5 2 4 5 4 2 2 1 2 3 3 4 4 1 3 2 3 5 1 5 2 1 1 3 3 3 4 8 15 10 5 19 19 25 24 12 18 27 27 32
15 5 8 10 7 2 3 4 2 2 4 1 3 2 4 2 1 3 1 3 1 3 3 2 6 3 2 4 4 1 2 3 3 4 6 6 14 9 13 6 5 11 13 28 31
9 6 10 5 4 1 2 5 3 4 4 4 4 3 6 3 4 4 4 4 3 3 4 3 3 6 5 3 4 4 2 3 3 6 4 3 9 5 15 21 10 8 9 8 13
8 2 9 4 1 2 2 3 3 6 7 4 2 5 4 3 3 4 7 6 5 5 4 4 3 5 7 7 5 2 6 4 2 8 6 5 13 3 12 12 13 14 13 17 17
6 2 10 10 3 3 4 4 4 5 6 6 6 8 5 3 3 6 4 5 14 5 5 5 1 3 8 6 5 2 4 3 3 8 12 7 4 15 18 20 20 18 21 17 21
5 2 4 11 5 3 4 5 4 8 5 8 4 7 3 6 7 5 3 3 8 5 7 5 3 6 6 7 3 5 10 13 6 5 10 14 19 25 19 19 22 31 22 19 26
5 3 4 2 6 10 5 2 4 4 8 13 4 14 7 5 4 11 11 8 5 4 3 5 4 5 6 7 6 12 18 17 11 13 11 22 17 16 14 18 18 27 30 23 26
6 4 3 3 5 7 8 6 8 11 7 6 12 10 13 10 10 6 4 5 6 2 4 2 3 2 10 8 11 16 15 17 13 8 9 17 16 15 17 23 20 21 28 29 31
9 15 8 5 3 4 5 7 8 3 12 19 15 11 14 20 21 20 18 8 5 7 5 5 4 2 8 2 12 10 3 4 3 4 5 7 9 18 19 21 16 20 30 30 33
Wind_Direction
319 319 320 318 319 317 314 312 314 315 311 309 308 314 316 319 318 308 310 302 283 320 315 290 250 233 246 241 218 212 227 235 228 220 219 213 243 259 259 300 293 225 212 209 178
321 322 323 320 318 311 308 310 311 310 308 304 303 299 307 311 310 307 297 75 6 309 280 283 263 250 239 243 228 213 224 234 215 228 220 236 258 271 282 290 297 266 220 207 178
322 321 318 312 308 305 305 303 303 304 306 301 295 284 288 306 313 292 183 354 323 278 275 281 271 240 232 230 212 226 235 229 258 234 242 254 254 260 268 279 272 277 233 182 176
325 321 318 316 315 309 308 308 302 302 303 300 280 272 275 296 297 304 245 248 278 286 272 280 240 210 217 221 227 253 243 246 253 247 247 240 258 259 232 250 267 284 281 190 177
321 319 316 315 316 311 306 304 303 302 297 296 267 261 264 249 267 292 253 256 267 277 249 235 215 220 232 235 231 239 247 261 259 246 253 264 254 256 269 266 271 280 280 192 185
321 318 316 310 312 311 306 300 301 302 295 295 258 250 237 245 288 272 289 261 253 245 234 233 223 235 291 259 246 275 270 264 258 256 242 244 261 273 260 262 269 269 249 210 193
319 317 315 306 308 305 302 303 298 300 297 297 237 240 223 249 261 288 277 268 271 244 262 240 253 270 321 281 262 266 266 275 263 262 254 255 262 244 255 260 261 259 245 228 211
316 311 308 307 307 301 301 302 302 295 298 265 226 228 245 265 291 285 276 261 261 247 255 262 258 258 243 284 314 261 239 247 251 247 249 205 260 251 246 254 250 257 252 228 226
317 321 317 317 316 315 308 310 318 312 289 228 212 218 281 281 275 318 231 262 300 290 261 261 250 224 232 223 268 232 261 253 265 238 226 212 258 257 248 248 247 249 246 240 240
329 329 327 325 320 320 314 317 315 259 193 202 208 287 253 252 275 301 184 260 294 280 318 244 204 172 195 191 234 237 254 258 254 270 244 235 248 249 247 239 239 244 253 246 240
332 328 327 323 317 322 313 306 303 282 195 220 212 218 8 256 263 248 243 285 287 289 237 285 241 221 218 222 253 286 290 271 281 285 306 226 267 281 244 236 251 242 237 239 238
329 327 325 321 319 330 344 298 285 290 292 266 254 250 265 277 295 290 279 239 233 257 229 258 265 252 256 235 243 251 259 270 287 270 273 292 276 255 266 249 237 236 237 237 242
329 325 321 313 321 329 322 303 283 274 322 318 284 252 261 268 243 302 206 185 213 241 199 191 242 198 224 247 255 252 257 279 275 290 274 292 280 267 262 270 265 249 235 239 242
327 326 321 313 318 317 310 308 279 325 316 282 261 296 204 232 239 261 220 203 254 257 217 225 252 341 273 303 277 278 271 286 295 313 272 213 275 270 243 240 245 244 240 234 236
345 337 343 347 315 289 324 338 145 62 6 238 95 133 326 235 307 276 225 187 238 260 63 267 316 327 320 253 303 256 325 313 294 285 274 274 273 263 198 264 245 246 243 244 237
3 8 358 354 306 323 343 120 314 45 270 341 47 310 307 258 262 277 253 234 265 239 236 242 274 236 231 254 261 275 296 295 254 238 248 236 235 236 230 238 252 250 248 247 245
0 4 6 5 333 15 127 296 38 110 271 271 303 323 300 276 282 325 320 274 239 356 328 331 256 263 212 275 351 66 39 326 336 167 241 201 226 241 263 234 237 242 246 253 250
3 357 4 15 102 131 319 45 79 226 217 29 339 317 274 357 344 351 358 289 267 190 114 129 311 197 302 158 189 195 144 176 303 244 331 334 228 242 235 241 245 245 239 243 253
360 350 66 116 146 151 328 60 209 217 163 217 308 316 279 1 193 8 326 261 293 31 169 46 255 339 92 82 104 269 160 218 258 255 264 237 271 275 286 256 236 236 237 245 245
354 30 128 149 181 349 59 239 238 116 124 190 183 197 265 279 341 72 269 265 43 39 95 222 316 345 13 347 59 18 213 339 251 252 234 223 243 242 291 312 281 257 251 246 244
297 306 186 171 217 290 173 232 229 209 157 187 201 238 251 273 199 204 237 276 200 147 86 120 123 298 5 37 348 4 334 343 294 239 221 249 256 193 236 256 304 315 329 336 336
292 264 202 160 222 259 239 212 206 181 203 242 248 253 223 254 263 237 221 218 139 151 172 184 158 274 251 288 178 235 197 132 272 301 288 227 263 64 25 25 355 330 315 329 328
286 243 185 190 220 222 279 262 232 181 190 196 233 221 209 253 246 221 232 234 224 169 185 179 227 329 332 1 343 321 284 188 264 269 263 268 272 360 347 349 347 335 323 328 340
266 274 194 205 242 257 253 237 230 224 218 198 235 212 220 250 230 274 246 265 146 165 192 136 173 179 209 216 171 290 278 289 251 268 296 292 301 311 335 342 334 325 318 337 353
235 248 222 205 228 228 227 234 217 234 217 204 239 216 193 227 230 236 237 261 278 226 188 141 202 208 232 245 249 261 277 285 273 253 264 277 281 303 337 330 325 347 343 340 358
215 227 221 260 249 210 219 212 235 242 201 216 232 212 213 217 208 209 188 192 208 18 141 8 250 273 280 243 261 280 288 283 279 314 282 266 278 354 337 333 333 334 342 343 352
241 252 245 248 244 182 207 222 228 236 230 233 222 235 231 234 230 247 255 242 197 165 192 152 145 87 276 357 310 287 320 315 125 37 348 0 333 334 331 331 332 347 352 339 340
Height
1526 1522 1518 1515 1512 1509 1507 1503 1500 1498 1494 1491 1487 1485 1483 1479 1475 1468 1463 1459 1455 1456 1458 1459 1458 1460 1462 1460 1463 1462 1461 1448 1441 1446 1443 1440 1444 1441 1442 1441 1437 1434 1434 1434 1439
1521 1517 1514 1511 1509 1505 1502 1498 1494 1491 1487 1484 1482 1480 1478 1475 1469 1460 1457 1455 1454 1455 1456 1456 1454 1456 1457 1455 1457 1454 1448 1431 1437 1442 1440 1441 1442 1438 1442 1439 1437 1434 1432 1431 1434
1517 1513 1510 1506 1502 1499 1496 1492 1489 1486 1483 1479 1476 1474 1473 1471 1464 1453 1453 1452 1454 1454 1452 1451 1451 1452 1451 1451 1445 1443 1430 1432 1433 1438 1441 1439 1435 1438 1438 1436 1435 1435 1429 1427 1430
1512 1508 1504 1500 1496 1492 1488 1485 1482 1479 1477 1474 1470 1468 1467 1470 1469 1453 1451 1450 1449 1450 1450 1448 1447 1448 1445 1440 1440 1440 1428 1434 1434 1435 1436 1433 1435 1430 1432 1430 1430 1433 1432 1423 1427
1506 1502 1498 1494 1490 1486 1482 1478 1474 1471 1469 1467 1464 1462 1460 1463 1451 1453 1450 1447 1446 1446 1445 1443 1442 1443 1440 1433 1436 1431 1425 1430 1430 1432 1430 1433 1425 1426 1423 1427 1427 1429 1430 1426 1423
1500 1496 1491 1487 1482 1478 1473 1470 1467 1463 1461 1459 1455 1455 1455 1457 1445 1445 1444 1443 1443 1442 1441 1440 1438 1438 1437 1434 1432 1427 1427 1425 1426 1426 1425 1425 1421 1428 1415 1421 1421 1424 1426 1426 1423
1494 1489 1485 1479 1474 1470 1465 1462 1458 1455 1452 1452 1446 1447 1445 1436 1440 1440 1440 1438 1439 1438 1437 1437 1436 1438 1436 1433 1431 1428 1428 1423 1420 1422 1419 1423 1421 1414 1414 1416 1417 1418 1421 1422 1422
1487 1482 1477 1471 1465 1462 1458 1453 1449 1446 1445 1442 1440 1441 1435 1434 1436 1432 1432 1431 1432 1431 1432 1433 1435 1434 1435 1433 1429 1425 1421 1422 1408 1415 1417 1418 1408 1401 1410 1412 1410 1411 1415 1418 1419
1479 1474 1469 1464 1459 1455 1450 1447 1442 1437 1435 1435 1436 1438 1434 1433 1431 1430 1429 1430 1430 1429 1429 1430 1431 1431 1433 1432 1431 1423 1418 1413 1409 1406 1410 1413 1401 1397 1407 1406 1403 1404 1408 1411 1414
1472 1467 1462 1458 1453 1449 1444 1443 1438 1433 1432 1433 1435 1443 1434 1431 1430 1430 1430 1431 1429 1427 1427 1427 1426 1428 1430 1430 1424 1420 1416 1410 1405 1404 1404 1400 1389 1395 1399 1400 1397 1397 1399 1402 1405
1466 1461 1457 1453 1449 1447 1440 1440 1440 1436 1434 1434 1432 1430 1431 1430 1429 1429 1429 1427 1428 1427 1428 1426 1427 1422 1423 1423 1424 1422 1419 1417 1412 1407 1403 1401 1401 1399 1396 1395 1394 1392 1392 1394 1396
1460 1455 1451 1448 1444 1443 1441 1438 1437 1437 1431 1430 1431 1431 1429 1430 1429 1422 1425 1428 1426 1424 1424 1428 1425 1420 1418 1421 1423 1422 1420 1408 1405 1404 1404 1404 1395 1397 1391 1387 1385 1386 1387 1388 1392
1454 1449 1445 1442 1439 1439 1439 1438 1434 1434 1434 1430 1430 1430 1428 1429 1427 1421 1422 1421 1422 1423 1423 1427 1415 1413 1418 1418 1418 1413 1414 1413 1411 1401 1400 1399 1390 1391 1386 1385 1381 1379 1379 1382 1383
1447 1442 1440 1437 1437 1436 1435 1435 1433 1434 1433 1432 1429 1428 1427 1426 1424 1419 1420 1422 1420 1420 1419 1421 1415 1413 1415 1415 1413 1414 1405 1405 1410 1410 1412 1398 1388 1380 1377 1374 1373 1371 1372 1373 1375
1442 1437 1435 1433 1435 1434 1435 1433 1433 1433 1455 1432 1430 1429 1427 1428 1424 1419 1419 1420 1420 1419 1420 1421 1415 1414 1413 1411 1411 1411 1405 1408 1408 1408 1409 1406 1404 1379 1375 1374 1367 1364 1363 1366 1368
1442 1436 1435 1435 1434 1434 1433 1433 1434 1445 1465 1434 1430 1429 1428 1425 1425 1423 1421 1419 1417 1417 1417 1418 1414 1414 1410 1406 1408 1406 1408 1405 1404 1404 1410 1400 1397 1376 1370 1361 1360 1359 1358 1359 1362
1444 1439 1436 1435 1435 1435 1435 1435 1446 1457 1439 1434 1431 1429 1426 1423 1419 1420 1422 1419 1420 1427 1426 1420 1414 1407 1406 1409 1407 1408 1416 1439 1442 1417 1397 1380 1389 1369 1359 1351 1351 1352 1352 1354 1357
1446 1442 1438 1437 1437 1438 1437 1438 1461 1439 1439 1437 1437 1434 1434 1425 1422 1421 1423 1423 1416 1419 1435 1437 1426 1409 1409 1408 1413 1410 1414 1435 1432 1445 1411 1386 1376 1355 1348 1348 1345 1345 1345 1348 1349
1448 1445 1441 1440 1440 1440 1441 1456 1446 1437 1436 1437 1437 1436 1428 1423 1428 1425 1425 1426 1418 1418 1432 1445 1416 1408 1405 1405 1407 1412 1419 1412 1411 1408 1410 1399 1367 1353 1348 1339 1338 1337 1339 1338 1340
1450 1446 1444 1443 1442 1443 1445 1443 1436 1435 1437 1438 1437 1438 1435 1426 1428 1438 1428 1422 1419 1419 1419 1428 1436 1408 1404 1402 1403 1408 1408 1412 1415 1412 1398 1385 1370 1359 1342 1338 1338 1338 1337 1333 1333
1448 1445 1444 1444 1445 1446 1452 1446 1436 1436 1436 1439 1437 1438 1432 1433 1433 1436 1431 1420 1418 1420 1420 1427 1434 1418 1408 1408 1413 1418 1410 1415 1413 1396 1389 1390 1353 1341 1339 1332 1337 1335 1335 1334 1332
1447 1445 1443 1444 1449 1446 1443 1437 1435 1434 1437 1437 1438 1434 1432 1428 1433 1430 1424 1418 1416 1417 1421 1421 1434 1434 1423 1409 1407 1409 1419 1415 1417 1416 1402 1381 1340 1339 1342 1342 1342 1336 1334 1332 1329
1447 1443 1443 1444 1444 1443 1439 1435 1433 1433 1433 1434 1432 1431 1429 1428 1433 1425 1419 1414 1414 1416 1420 1421 1437 1452 1432 1424 1413 1416 1407 1409 1413 1409 1392 1374 1349 1340 1338 1336 1337 1335 1330 1327 1323
1445 1443 1443 1441 1439 1438 1435 1431 1430 1426 1426 1426 1426 1427 1429 1427 1423 1426 1418 1412 1411 1413 1414 1416 1426 1437 1442 1438 1434 1429 1411 1406 1411 1407 1386 1381 1367 1344 1342 1345 1337 1332 1327 1323 1316
1442 1438 1436 1437 1435 1434 1434 1430 1425 1424 1425 1424 1422 1420 1421 1424 1420 1415 1415 1413 1409 1409 1411 1417 1429 1427 1421 1418 1417 1413 1403 1398 1398 1394 1393 1370 1361 1352 1357 1351 1346 1341 1333 1323 1311
1438 1436 1434 1430 1430 1429 1429 1425 1422 1418 1420 1417 1416 1409 1414 1414 1409 1412 1409 1412 1411 1410 1414 1419 1426 1415 1410 1410 1407 1400 1392 1388 1384 1378 1374 1366 1359 1364 1360 1356 1348 1344 1337 1324 1314
1430 1430 1430 1423 1423 1424 1423 1416 1413 1415 1410 1406 1406 1408 1406 1401 1403 1403 1404 1404 1403 1408 1415 1419 1422 1428 1408 1405 1404 1404 1384 1379 1380 1385 1380 1376 1377 1369 1360 1355 1353 1345 1338 1330 1323